Погода в Кривояре

Россия / Саратовская область     50°51′51″N   46°29′33″E
темп.,
°C
ветер,
м/с
пор.,
м/с
влажн.,
%
обл.,
%
осадки,
мм/ч
давл.,
гПа
погр.,
м
4 июля, пн
пн401:00+15ссз35855 0.0 101171
04:00+14сз47885 0.0 1011104
07:00+18сз4876100 0.0 1011227
10:00+21ссз586767 0.1 1011632
13:00+23с795298 0.6 10101851
16:00+21с6955100 0.6 10111247
19:00+20ссв6105111 0.0 10121425
22:00+17ссв4960100 0.0 1012394
5 июля, вт
вт501:00+15с5127185 0.0 1013337
04:00+13с49842 0.0 1014171
07:00+15с610761 0.0 1015391
10:00+19ссв68525 0.0 10151307
13:00+22ссв684112 0.0 10162146
16:00+22св8846100 0.0 10151843
19:00+19св685165 0.0 10161158
22:00+14ссв496694 0.0 1018193
6 июля, ср
ср601:00+13св34735 0.0 101855
04:00+12с34755 0.0 101951
07:00+15ссв34650 0.0 1020161
10:00+20с33480 0.0 1020966
13:00+23с22411 0.0 10201642
16:00+25ссз22380 0.0 10191788
19:00+23сз334531 0.0 1019577
22:00+18сз11531 0.0 101911
7 июля, чт
чт701:00+17вюв00560 0.0 101911
04:00+16ююз11615 0.0 101911
07:00+19з11542 0.0 102075
10:00+24зюз22400 0.0 1020792
13:00+27зсз22320 0.0 10191713
16:00+28сз31290 0.0 10181784
19:00+27сз22333 0.0 1018854
22:00+21ссв22455 0.0 101811
8 июля, пт
пт801:00+20вюв22512 0.0 101811
04:00+18в11550 0.0 101811
07:00+21всв22520 0.0 101976
10:00+26вюв11380 0.0 1018855
13:00+29всв23350 0.0 10182077
16:00+30всв22310 0.0 10172551
19:00+29всв233625 0.0 10161703
22:00+24всв11526 0.0 101612